Hourly Data Report for October 26, 2014

All times are specified in Local Standard Time (LST). Add 1 hour to adjust for Daylight Saving Time where and when it is observed.

PETAWAWA AWOS 2
ONTARIO

45°57'00.000" N
77°19'00.000" W
130.10 m
6106396
71625
YWA

Download Data

Hourly Data (October 2014)
Hourly Data Report for October 26, 2014
Temp Definition
°C
Dew Point Temp Definition
°C
Rel Hum Definition
%
Wind Dir Definition
10's deg

Wind Spd Definition
km/h
Visibility Definition
km
Stn Press Definition
kPa
Hmdx Definition


Wind Chill Definition


Weather Definition


TIME
00:00 7.9 3.9 76 29 9 14.5 98.24     LegendNANA
01:00 7.4 3.9 78 27 7 14.5 98.22     LegendNANA
02:00 7.3 3.8 78 27 6 14.5 98.25     Rain
03:00 6.3 2.2 75 30 15 14.5 98.29     Rain
04:00 5.9 2.3 78 28 9 14.5 98.32     Rain
05:00 5.7 2.1 78 28 13 14.5 98.38     Drizzle
06:00 5.5 2.0 78 29 9 14.5 98.43     LegendNANA
07:00 5.6 1.2 73 31 17 14.5 98.51     LegendNANA
08:00 5.7 2.4 79 31 13 8.0 98.59     Drizzle
09:00 6.2 2.0 74 30 17 14.5 98.65     Drizzle
10:00 6.7 1.9 71 29 22 14.5 98.69     LegendNANA
11:00 6.7 1.7 70 30 17 14.5 98.76     Rain
12:00 7.1 2.7 74 31 13 8.0 98.78     Drizzle
13:00 7.8 2.0 67 30 19 14.5 98.82     Rain
14:00 7.9 2.1 67 30 15 14.5 98.84     LegendNANA
15:00 8.0 1.9 65 29 15 14.5 98.92     LegendNANA
16:00 7.4 2.3 70 30 20 14.5 99.02     LegendNANA
17:00 7.1 1.6 68 30 15 14.5 99.10     LegendNANA
18:00 6.9 1.9 70 29 11 14.5 99.16     LegendNANA
19:00 6.5 2.2 74 30 17 14.5 99.26     LegendNANA
20:00 6.1 2.2 76 31 13 14.5 99.31     LegendNANA
21:00 5.7 2.6 80 31 17 5.6 99.37     Drizzle
22:00 5.6 1.7 76 31 19 14.5 99.44     LegendNANA
23:00 5.6 0.8 71 30 15 14.5 99.48     LegendNANA

Notes on Data Quality.

Legend

  • E = Estimated
  • M = Missing
  • NA = Not Available
  • ‡ = Partner data that is not subject to review by the National Climate Archives
Date modified: